Miscellaneous Local Product
Issued by NWS Hastings, NE

Home | Current Version | Previous Version | Graphics & Text | Print | Product List | Glossary On
Versions: 1 2 3 4 5 6 7 8 9 10 11 12 13 14 15 16 17 18 19 20 21 22 23 24 25 26 27 28 29 30 31 32 33 34 35 36 37 38 39 40 41 42 43 44 45 46 47 48 49 50
000
AXUS43 KGID 011302
MISGRI

GID CWA HOURLY WEATHER ROUNDUP
NATIONAL WEATHER SERVICE HASTINGS NE
700 AM CST SUN FEB 01 2015

NOTE: "FAIR" INDICATES FEW OR NO CLOUDS BELOW 12,000 FEET WITH NO
SIGNIFICANT WEATHER AND/OR OBSTRUCTIONS TO VISIBILITY.

...SOUTH CENTRAL NEBRASKA...

CITY           SKY/WX    TMP DP  RH WIND       PRES   REMARKS
GRAND ISLAND   BLWGSNOW  10   6  84 N35       30.04R VSB 1/2 WCI -13
HASTINGS       SNOW      11   7  84 N36G44    30.01R VSB 1/2 WCI -13
KEARNEY        CLOUDY    10   7  85 N28G38    30.05R WCI -11
ORD            LGT SNOW   7   1  76 NW28G36   30.11R VSB 3/4 WCI -16
YORK           LGT SNOW  16  14  93 N23G29    29.96R WCI  -2
AURORA         LGT SNOW  12  10  89 N33G40    30.01R VSB 3/4 WCI -10
LEXINGTON      LGT SNOW  13   8  83 N25G33    30.10R WCI  -7
HOLDREGE       LGT SNOW  12   9  85 N26G32    30.04R WCI  -8
HEBRON         LGT SNOW  19  15  86 N18G28    29.92R WCI   4

...NEBRASKA PANHANDLE...

CITY           SKY/WX    TMP DP  RH WIND       PRES   REMARKS
CHADRON        LGT SNOW   7   3  84 N7        30.26R FOG     WCI  -5
ALLIANCE       CLOUDY     6   1  80 N15       30.15R WCI -12
SCOTTSBLUFF    CLOUDY    17  12  80 N10       30.16R WCI   5
SIDNEY         CLEAR     13  10  88 N15       30.10R WCI  -3

...WESTERN AND NORTH CENTRAL NEBRASKA...

CITY           SKY/WX    TMP DP  RH WIND       PRES   REMARKS
VALENTINE      LGT SNOW   4  -2  76 N22G28    30.23R WCI -18
AINSWORTH      LGT SNOW   4   0  83 N28G33    30.18R VSB 1   WCI -20
ONEILL         LGT SNOW   5   1  85 N28G35    30.15R WCI -18
BROKEN BOW     LGT SNOW   8   3  80 N24G32    30.10R VSB 1   WCI -13
IMPERIAL       MOCLDY    12   6  77 N22G31    30.14R WCI  -7
NORTH PLATTE   CLOUDY    10   3  73 N21G29    30.14R WCI  -9
MCCOOK         CLOUDY    16   8  71 N26G35    30.12R WCI  -3

...EASTERN NEBRASKA...

CITY           SKY/WX    TMP DP  RH WIND       PRES   REMARKS
NORFOLK        FOG       13   9  84 N30G38    30.03R VSB 1   WCI  -8
SO SIOUX CITY  LGT SNOW  20  16  84 N23G30    30.02R VSB 1   WCI   3
TEKAMAH        LGT SNOW  23  20  88 N31G39    29.94R VSB 3/4 WCI   5
ALBION         LGT SNOW   9   4  80 N22G31    30.05R WCI -11
OMAHA EPPLEY   LGT SNOW  27  25  92 N23G31    29.87R VSB 3/4 WCI  12
OFFUTT AFB     LGT SNOW  28  27  93 N12       29.84R FOG     WCI  18
MILLARD        LGT SNOW  28  26  89 N3        29.86R
LINCOLN        LGT SNOW  24  21  88 N30G40    29.90R VSB 3/4 WCI   7
NEBRASKA CITY  LGT SNOW  32  32 100 N8        29.78R WCI  25
BEATRICE       LGT SNOW  27  26  94 N17       29.84R WCI  14
FALLS CITY     LGT SNOW  32  31  96 NW8       29.76R FOG     WCI  25

...NORTHERN KANSAS...

CITY           SKY/WX    TMP DP  RH WIND       PRES   REMARKS
GOODLAND       MOCLDY    19  15  84 N23G33    30.08R WCI   2
HILL CITY      CLOUDY    18  12  77 N25G37    30.07R WCI   0
NORTON         FLURRIES  16   9  73 NW23G33   30.07  WCI  -2
PHILLIPSBURG   LGT SNOW  19  16  86 NW25G33   30.06R WCI   2
SMITH CENTER   LGT SNOW  16  10  79 NW33G39   30.02R WCI  -5
BELOIT         CLOUDY    19  18  93 NW24G32   29.98R WCI   2
HAYS           MOCLDY    19   7  58 N26G41    30.03R WCI   1
RUSSELL        CLOUDY    21  16  81 NW35G41   29.99R WCI   2
CONCORDIA      LGT SNOW  20  17  88 N24G41    29.93R FOG     WCI   3
SALINA         LGT SNOW  27  22  81 NW36G45   29.91R WCI  10
TOPEKA         LGT SNOW  33  32  96 NW7       29.75R FOG     WCI  27



USA.gov is the U.S. government's official web portal to all federal, state and local government web resources and services.